Regional Weather Roundup
Issued by NWS

Home | Current Version | Previous Version | Graphics & Text | Print | Product List | Glossary Off
Versions: 1 2 3 4 5 6 7 8 9 10 11 12 13 14 15 16 17 18 19 20 21 22 23 24 25 26 27 28 29 30 31 32 33 34 35 36 37 38 39 40 41 42 43 44 45 46 47 48 49 50

000
ASUS43 KMKX 310200
RWRWI

WISCONSIN REGIONAL WEATHER ROUNDUP
NATIONAL WEATHER SERVICE MILWAUKEE/SULLIVAN WI
900 PM CDT THU OCT 30 2014

NOTE: "FAIR" INDICATES FEW OR NO CLOUDS BELOW 12,000 FEET WITH NO
SIGNIFICANT WEATHER AND/OR OBSTRUCTIONS TO VISIBILITY.

WIZ001-002-006>008-014>016-023>028-310300-
NORTHWEST WISCONSIN

CITY           SKY/WX    TMP DP  RH WIND       PRES   REMARKS
SUPERIOR ARPT  PTCLDY    32  20  61 N21G30    30.27R WCI  20
ASHLAND        LGT SNOW  33  28  81 NW18G33   30.18R WCI  22
HAYWARD        LGT SNOW  33  27  78 N9G20     30.19R WCI  25
SIREN          CLOUDY    35  26  69 N14G22    30.24R WCI  26
CUMBERLAND     LGT SNOW  32  28  86 N18G33    30.19R WCI  20
RICE LAKE      RAIN      38  32  79 N15G22    30.19R WCI  29
CHETEK         CLOUDY    38  33  83 NW6G17    30.16R WCI  33
LADYSMITH      CLOUDY    37  34  86 NW9       30.14R WCI  31
EAU CLAIRE     NOT AVBL
MENOMONIE      CLOUDY    42  31  64 NW16G28   30.18R
NEW RICHMOND   CLOUDY    39  27  61 N29G37    30.22R WCI  28
OSCEOLA        CLOUDY    39  27  62 N18G30    30.26R WCI  29
$$

WIZ003>005-009-010-017-018-310300-
NORTH CENTRAL WISCONSIN

CITY           SKY/WX    TMP DP  RH WIND       PRES   REMARKS
MANITOWISH WTR LGT SNOW  32  32  99 NW13G18   30.05S WCI  23
ARBOR VITAE    LGT SNOW  37  34  91 NW14      30.05R WCI  28
WOODRUFF       LGT SNOW  37  34  91 NW14      30.05R WCI  28
RHINELANDER    MIX PCPN  36  31  82 W13       30.03F WCI  27
EAGLE RIVER    LGT SNOW  34  33  94 NW10G20   30.02R WCI  26
LAND O LAKES   LGT SNOW  34  32  94 NW8G17    30.03S WCI  27
PHILLIPS       LGT RAIN  34  32  92 NW10G22   30.09R WCI  26
TOMAHAWK       CLOUDY    37  31  76 W9        30.06S WCI  31
MEDFORD        CLOUDY    38  32  79 NW10G16   30.07S WCI  31
MERRILL        CLOUDY    39  31  74 NW7       30.06R WCI  34
$$

WIZ029-030-035-036-043>047-310300-
CENTRAL WISCONSIN

CITY           SKY/WX    TMP DP  RH WIND       PRES   REMARKS
WAUSAU         CLOUDY    41  30  65 NW8       30.04S
MOSINEE        CLOUDY    39  34  81 NW17G23   30.06S WCI  30
MARSHFIELD     CLOUDY    41  32  70 NW17      30.07S
STEVENS POINT  CLOUDY    40  32  71 NW10      30.06S WCI  34
WAUPACA        CLOUDY    46  34  63 NW10G18   30.05R
WAUTOMA        NOT AVBL
WISC RAPIDS    CLOUDY    43  32  65 NW13G21   30.08S
CAMP DOUGLAS   NOT AVBL
$$

WIZ011>013-019>022-031-037>040-048>050-310300-
NORTHEAST WISCONSIN

CITY           SKY/WX    TMP DP  RH WIND       PRES   REMARKS
ANTIGO         MOCLDY    37  31  77 NW9       30.02F WCI  31
SHAWANO        CLOUDY    46  33  61 NW6       30.03S
OCONTO         CLOUDY    44  33  64 NW6       30.01S
STURGEON BAY   CLOUDY    45  30  57 NW15      29.99F
GREEN BAY      CLOUDY    45  35  68 NW13      30.01F
MANITOWOC      NOT AVBL
APPLETON       MOCLDY    45  32  61 NW14      30.02S
CLINTONVILLE   CLOUDY    45  32  61 NW9       30.03S
OSHKOSH        CLOUDY    46  35  65 NW13      30.02S
$$

WIZ032>034-041-042-053>061-310300-
SOUTHWEST WISCONSIN

CITY           SKY/WX    TMP DP  RH WIND       PRES   REMARKS
LA CROSSE      CLOUDY    46  34  62 N23G30    30.13R
SPARTA         CLOUDY    45  35  68 N20G26    30.12R
VIROQUA        CLOUDY    43  38  82 NW8       30.09R
BOSCOBEL       CLOUDY    48  37  65 W3        30.10S
PRAIRIE DU CHI CLOUDY    46  38  73 CALM      30.11R
PLATTEVILLE    CLOUDY    46  40  80 W5        30.09S
$$

WIZ056-057-062-063-064-067-068-310300-
SOUTH CENTRAL WISCONSIN

CITY           SKY/WX    TMP DP  RH WIND       PRES   REMARKS
REEDSBURG      CLOUDY    45  37  73 W7        30.06S
BARABOO/DELLS  CLOUDY    45  35  69 W6        30.06S
LONE ROCK      NOT AVBL
MINERAL POINT  CLOUDY    46  37  71 W5        30.07F
MADISON        CLOUDY    46  36  68 W5        30.05F
MIDDLETON      CLOUDY    46  37  68 W6        30.06S
WATERTOWN      CLOUDY    45  36  71 W6        30.03F
MONROE         CLOUDY    45  37  76 W7        30.06S
JANESVILLE     CLOUDY    45  37  76 W8        30.05S
$$

WIZ051-052-058>065-066-070>072-310300-
SOUTHEAST WISCONSIN

CITY           SKY/WX    TMP DP  RH WIND       PRES   REMARKS
MILWAUKEE      CLOUDY    48  34  58 W6        30.03F
WAUKESHA       CLOUDY    45  34  65 SW8       30.03F
MILWAUKEE/TIMM CLOUDY    46  34  61 CALM      30.03F
RACINE         CLOUDY    47  34  60 W5        30.04F
BURLINGTON     CLOUDY    41  35  78 SW3       30.04F
KENOSHA        CLOUDY    43  36  76 W6        30.04F
FOND DU LAC    CLOUDY    46  36  68 W7        30.02S
SHEBOYGAN      CLOUDY    44  36  73 SW5       30.00F
WEST BEND      CLOUDY    45  34  65 W7        30.02S
JUNEAU         CLOUDY    45  36  71 W8        30.04F
$$

LSZ147-162-310300-
LAKE SUPERIOR

STATION/POSITION TIME  TEMP    WIND        PRES    WAVE
                       AIR SEA DIR/SP/G            HT/PER
                 (UTC) (F)     (DEG/KT/KT) (MB)    (FT/S)
W MID LAKE BUOY  0050   39 45  350/ 23/ 27 1019.0R   4/ 5
DEVILS ISLAND    0100   37     340/ 36/ 41 1021.4R
PORT WING        0100   38     330/ 28     1022.7R
SAXON HARBOR     0111   41     320/ 21/ 27 1019.6R
$$

LMZ867-665-643>646-310300-
LAKE MICHIGAN

STATION/POSITION TIME  TEMP    WIND        PRES    WAVE
                       AIR SEA DIR/SP/G            HT/PER
                 (UTC) (F)     (DEG/KT/KT) (MB)    (FT/S)
CHAMBERS ISLAND  0100   45     300/ 10/ 15 1015.9S
N MID LAKE BUOY  0050   46 51  300/ 14/ 16 1015.5F   2/ 4
NORTHPORT PIER   0100   46     300/ 11/ 19 1015.6S
KEWAUNEE LAKESHO 0100                      1015.1F
SHEBOYGAN LAKESH 0100   48 50  230/  7/  8 1017.0F
PORT WASHINGTON  0140   48     260/  5/  7 1016.9F
ATWATER BUOY     0100   50     240/  8/ 10 1018.1F
MILWAUKEE LAKESH 0100   49     270/  5/  7   N/A
S MID LAKE BUOY  0050   51 53  280/ 12/ 12 1017.5F   1/ 4
KENOSHA   LAKESH 0100   49     280/  4/  7 1017.3F
$$

TC  - TEMPERATURE IN CELSIUS
VSB - VISIBILITY IN STATUTE MILES
WCI - WIND CHILL INDEX
HX  - HEAT INDEX




USA.gov is the U.S. government's official web portal to all federal, state and local government web resources and services.